Time,TemperatureF,DewpointF,PressureIn,WindDirection,WindDirectionDegrees,WindSpeedMPH,WindSpeedGustMPH,Humidity,HourlyPrecipIn,Conditions,Clouds,dailyrainin,SolarRadiationWatts/m^2,SoftwareType,DateUTC
2013-01-10 00:02:00,32.0,31.0,-100.00,SSW,201,1.0,9.0,96,0.01,,,0.18,0.000000,,2013-01-10 07:02:00,
2013-01-10 00:12:00,32.0,31.0,-100.00,SSW,201,1.0,9.0,96,0.01,,,0.18,0.000000,,2013-01-10 07:12:00,
2013-01-10 00:22:00,32.0,31.0,-100.00,SSW,201,1.0,9.0,96,0.01,,,0.18,0.000000,,2013-01-10 07:22:00,
2013-01-10 00:52:00,32.0,31.0,-100.00,SSW,199,1.0,12.0,96,0.00,,,0.18,0.000000,,2013-01-10 07:52:00,
2013-01-10 01:01:00,32.0,31.0,-100.00,SSW,199,1.0,12.0,96,0.00,,,0.18,0.000000,,2013-01-10 08:01:00,
2013-01-10 01:11:00,32.0,31.0,-100.00,SSW,199,1.0,12.0,96,0.00,,,0.18,0.000000,,2013-01-10 08:11:00,
2013-01-10 01:22:00,32.0,31.0,-100.00,SSW,199,1.0,12.0,96,0.00,,,0.18,0.000000,,2013-01-10 08:22:00,
2013-01-10 01:53:00,32.0,31.0,-100.00,SSW,192,3.0,8.0,96,0.00,,,0.18,0.000000,,2013-01-10 08:53:00,
2013-01-10 02:02:00,32.0,31.0,-100.00,SSW,192,3.0,8.0,96,0.00,,,0.18,0.000000,,2013-01-10 09:02:00,
2013-01-10 02:12:00,32.0,31.0,-100.00,SSW,192,3.0,8.0,96,0.00,,,0.18,0.000000,,2013-01-10 09:12:00,
2013-01-10 02:22:00,32.0,31.0,-100.00,SSW,192,3.0,8.0,96,0.00,,,0.18,0.000000,,2013-01-10 09:22:00,
2013-01-10 02:52:00,32.0,30.0,-100.00,South,185,4.0,12.0,94,0.00,,,0.18,0.000000,,2013-01-10 09:52:00,
2013-01-10 03:02:00,32.0,30.0,-100.00,South,185,4.0,12.0,94,0.00,,,0.18,0.000000,,2013-01-10 10:02:00,
2013-01-10 03:12:00,32.0,30.0,-100.00,South,185,4.0,12.0,94,0.00,,,0.18,0.000000,,2013-01-10 10:12:00,
2013-01-10 03:22:00,32.0,30.0,-100.00,South,185,4.0,12.0,94,0.00,,,0.18,0.000000,,2013-01-10 10:22:00,
2013-01-10 03:52:00,31.0,30.0,-100.00,SSW,200,2.0,10.0,95,0.00,,,0.18,0.000000,,2013-01-10 10:52:00,
2013-01-10 04:02:00,31.0,30.0,-100.00,SSW,200,2.0,10.0,95,0.00,,,0.18,0.000000,,2013-01-10 11:02:00,
2013-01-10 04:12:00,31.0,30.0,-100.00,SSW,200,2.0,10.0,95,0.00,,,0.18,0.000000,,2013-01-10 11:12:00,
2013-01-10 04:22:00,31.0,30.0,-100.00,SSW,200,2.0,10.0,95,0.00,,,0.18,0.000000,,2013-01-10 11:22:00,
2013-01-10 04:53:00,31.0,30.0,-100.00,South,186,3.0,9.0,96,0.00,,,0.18,0.000000,,2013-01-10 11:53:00,
2013-01-10 05:02:00,31.0,30.0,-100.00,South,186,3.0,9.0,96,0.00,,,0.18,0.000000,,2013-01-10 12:02:00,
2013-01-10 05:12:00,31.0,30.0,-100.00,South,186,3.0,9.0,96,0.00,,,0.18,0.000000,,2013-01-10 12:12:00,
2013-01-10 05:22:00,31.0,30.0,-100.00,South,186,3.0,9.0,96,0.00,,,0.18,0.000000,,2013-01-10 12:22:00,
2013-01-10 07:53:00,30.0,28.0,-100.00,SSW,198,0.0,9.0,94,-99.99,,,0.18,0.000000,,2013-01-10 14:53:00,
2013-01-10 08:03:00,30.0,28.0,-100.00,SSW,198,0.0,9.0,94,-99.99,,,0.18,0.000000,,2013-01-10 15:03:00,
2013-01-10 08:12:00,30.0,28.0,-100.00,SSW,198,0.0,9.0,94,-99.99,,,0.18,0.000000,,2013-01-10 15:12:00,
2013-01-10 08:22:00,30.0,28.0,-100.00,SSW,198,0.0,9.0,94,-99.99,,,0.18,0.000000,,2013-01-10 15:22:00,
2013-01-10 08:53:00,29.0,28.0,-100.00,SSW,196,0.0,6.0,96,0.00,,,0.18,0.000000,,2013-01-10 15:53:00,
2013-01-10 09:02:00,29.0,28.0,-100.00,SSW,196,0.0,6.0,96,0.00,,,0.18,0.000000,,2013-01-10 16:02:00,
2013-01-10 09:12:00,29.0,28.0,-100.00,SSW,196,0.0,6.0,96,0.00,,,0.18,0.000000,,2013-01-10 16:12:00,
2013-01-10 09:22:00,29.0,28.0,-100.00,SSW,196,0.0,6.0,96,0.00,,,0.18,0.000000,,2013-01-10 16:22:00,
2013-01-10 09:53:00,30.0,29.0,-100.00,NE,45,0.0,4.0,96,0.00,,,0.18,3.000000,,2013-01-10 16:53:00,
2013-01-10 10:02:00,30.0,29.0,-100.00,NE,45,0.0,4.0,96,0.00,,,0.18,3.000000,,2013-01-10 17:02:00,
2013-01-10 10:12:00,30.0,29.0,-100.00,NE,45,0.0,4.0,96,0.00,,,0.18,3.000000,,2013-01-10 17:12:00,
2013-01-10 10:22:00,30.0,29.0,-100.00,NE,45,0.0,4.0,96,0.00,,,0.18,3.000000,,2013-01-10 17:22:00,
2013-01-10 10:53:00,28.0,26.0,-100.00,NW,305,1.0,5.0,91,0.00,,,0.18,8.000000,,2013-01-10 17:53:00,
2013-01-10 11:03:00,28.0,26.0,-100.00,NW,305,1.0,5.0,91,0.00,,,0.18,8.000000,,2013-01-10 18:03:00,
2013-01-10 11:12:00,28.0,26.0,-100.00,NW,305,1.0,5.0,91,0.00,,,0.18,8.000000,,2013-01-10 18:12:00,
2013-01-10 11:22:00,28.0,26.0,-100.00,NW,305,1.0,5.0,91,0.00,,,0.18,8.000000,,2013-01-10 18:22:00,
2013-01-10 11:53:00,27.0,24.0,-100.00,SW,231,0.0,7.0,88,0.00,,,0.18,12.000000,,2013-01-10 18:53:00,
2013-01-10 12:02:00,27.0,24.0,-100.00,SW,231,0.0,7.0,88,0.00,,,0.18,12.000000,,2013-01-10 19:02:00,
2013-01-10 12:12:00,27.0,24.0,-100.00,SW,231,0.0,7.0,88,0.00,,,0.18,12.000000,,2013-01-10 19:12:00,
2013-01-10 12:22:00,27.0,24.0,-100.00,SW,231,0.0,7.0,88,0.00,,,0.18,12.000000,,2013-01-10 19:22:00,
2013-01-10 12:53:00,26.0,23.0,-100.00,WNW,283,0.0,6.0,88,0.00,,,0.17,20.000000,,2013-01-10 19:53:00,
2013-01-10 13:02:00,26.0,23.0,-100.00,WNW,283,0.0,6.0,88,0.00,,,0.17,20.000000,,2013-01-10 20:02:00,
2013-01-10 13:12:00,26.0,23.0,-100.00,WNW,283,0.0,6.0,88,0.00,,,0.17,20.000000,,2013-01-10 20:12:00,
2013-01-10 13:22:00,26.0,23.0,-100.00,WNW,283,0.0,6.0,88,0.00,,,0.17,20.000000,,2013-01-10 20:22:00,
2013-01-10 13:53:00,26.0,22.0,-100.00,WNW,302,5.0,10.0,85,0.00,,,0.15,34.000000,,2013-01-10 20:53:00,
2013-01-10 14:03:00,26.0,22.0,-100.00,WNW,302,5.0,10.0,85,0.00,,,0.15,34.000000,,2013-01-10 21:03:00,
2013-01-10 14:12:00,26.0,22.0,-100.00,WNW,302,5.0,10.0,85,0.00,,,0.15,34.000000,,2013-01-10 21:12:00,
2013-01-10 14:22:00,26.0,22.0,-100.00,WNW,302,5.0,10.0,85,0.00,,,0.15,34.000000,,2013-01-10 21:22:00,
2013-01-10 14:53:00,24.0,20.0,-100.00,NW,309,3.0,9.0,84,0.00,,,0.13,29.000000,,2013-01-10 21:53:00,
2013-01-10 15:03:00,24.0,20.0,-100.00,NW,309,3.0,9.0,84,0.00,,,0.13,29.000000,,2013-01-10 22:03:00,
2013-01-10 15:12:00,24.0,20.0,-100.00,NW,309,3.0,9.0,84,0.00,,,0.13,29.000000,,2013-01-10 22:12:00,
2013-01-10 15:23:00,24.0,20.0,-100.00,NW,309,3.0,9.0,84,0.00,,,0.13,29.000000,,2013-01-10 22:23:00,
2013-01-10 16:02:00,22.0,18.0,-100.00,NW,307,4.0,10.0,86,0.00,,,0.10,15.000000,,2013-01-10 23:02:00,
2013-01-10 16:12:00,22.0,18.0,-100.00,NW,307,4.0,10.0,86,0.00,,,0.10,15.000000,,2013-01-10 23:12:00,
2013-01-10 16:22:00,22.0,18.0,-100.00,NW,307,4.0,10.0,86,0.00,,,0.10,15.000000,,2013-01-10 23:22:00,
2013-01-10 16:53:00,21.0,17.0,-100.00,West,274,1.0,7.0,85,0.00,,,0.08,7.000000,,2013-01-10 23:53:00,
2013-01-10 17:02:00,21.0,17.0,-100.00,West,274,1.0,7.0,85,0.00,,,0.08,7.000000,,2013-01-11 00:02:00,
2013-01-10 17:12:00,21.0,17.0,-100.00,West,274,1.0,7.0,85,0.00,,,0.08,7.000000,,2013-01-11 00:12:00,
2013-01-10 17:22:00,21.0,17.0,-100.00,West,274,1.0,7.0,85,0.00,,,0.08,7.000000,,2013-01-11 00:22:00,
2013-01-10 18:02:00,20.0,16.0,-100.00,ENE,74,2.0,11.0,84,0.00,,,0.06,1.000000,,2013-01-11 01:02:00,
2013-01-10 18:12:00,20.0,16.0,-100.00,ENE,74,2.0,11.0,84,0.00,,,0.06,1.000000,,2013-01-11 01:12:00,
2013-01-10 18:22:00,20.0,16.0,-100.00,ENE,74,2.0,11.0,84,0.00,,,0.06,1.000000,,2013-01-11 01:22:00,
2013-01-10 18:53:00,18.0,15.0,-100.00,SE,125,0.0,9.0,88,0.00,,,0.04,0.000000,,2013-01-11 01:53:00,
2013-01-10 19:02:00,18.0,15.0,-100.00,SE,125,0.0,9.0,88,0.00,,,0.04,0.000000,,2013-01-11 02:02:00,
2013-01-10 19:12:00,18.0,15.0,-100.00,SE,125,0.0,9.0,88,0.00,,,0.04,0.000000,,2013-01-11 02:12:00,
2013-01-10 19:22:00,18.0,15.0,-100.00,SE,125,0.0,9.0,88,0.00,,,0.04,0.000000,,2013-01-11 02:22:00,
2013-01-10 19:54:00,17.0,14.0,-100.00,ESE,113,3.0,12.0,86,0.00,,,0.03,0.000000,,2013-01-11 02:54:00,
2013-01-10 20:02:00,17.0,14.0,-100.00,ESE,113,3.0,12.0,86,0.00,,,0.03,0.000000,,2013-01-11 03:02:00,
2013-01-10 20:12:00,17.0,14.0,-100.00,ESE,113,3.0,12.0,86,0.00,,,0.03,0.000000,,2013-01-11 03:12:00,
2013-01-10 20:22:00,17.0,14.0,-100.00,ESE,113,3.0,12.0,86,0.00,,,0.03,0.000000,,2013-01-11 03:22:00,
2013-01-10 20:53:00,16.0,11.0,-100.00,East,99,3.0,10.0,82,0.00,,,0.02,0.000000,,2013-01-11 03:53:00,
2013-01-10 21:02:00,16.0,11.0,-100.00,East,99,3.0,10.0,82,0.00,,,0.02,0.000000,,2013-01-11 04:02:00,
2013-01-10 21:12:00,16.0,11.0,-100.00,East,99,3.0,10.0,82,0.00,,,0.02,0.000000,,2013-01-11 04:12:00,
2013-01-10 21:22:00,16.0,11.0,-100.00,East,99,3.0,10.0,82,0.00,,,0.02,0.000000,,2013-01-11 04:22:00,
2013-01-10 21:53:00,15.0,12.0,-100.00,ESE,110,0.0,7.0,86,0.00,,,0.02,0.000000,,2013-01-11 04:53:00,
2013-01-10 22:03:00,15.0,12.0,-100.00,ESE,110,0.0,7.0,86,0.00,,,0.02,0.000000,,2013-01-11 05:03:00,
2013-01-10 22:12:00,15.0,12.0,-100.00,ESE,110,0.0,7.0,86,0.00,,,0.02,0.000000,,2013-01-11 05:12:00,
2013-01-10 22:22:00,15.0,12.0,-100.00,ESE,110,0.0,7.0,86,0.00,,,0.02,0.000000,,2013-01-11 05:22:00,
2013-01-10 22:53:00,14.0,10.0,-100.00,WNW,301,0.0,5.0,85,0.00,,,0.01,0.000000,,2013-01-11 05:53:00,
2013-01-10 23:02:00,14.0,10.0,-100.00,WNW,301,0.0,5.0,85,0.00,,,0.01,0.000000,,2013-01-11 06:02:00,
2013-01-10 23:12:00,14.0,10.0,-100.00,WNW,301,0.0,5.0,85,0.00,,,0.01,0.000000,,2013-01-11 06:12:00,
2013-01-10 23:22:00,14.0,10.0,-100.00,WNW,301,0.0,5.0,85,0.00,,,0.01,0.000000,,2013-01-11 06:22:00,
2013-01-10 23:52:00,14.0,9.0,-100.00,NW,307,0.0,7.0,79,0.00,,,0.00,0.000000,,2013-01-11 06:52:00,